WAT3911 PHTO-KSAN

Flight info

Callsign WAT3911
Flight time N/A
Altitude 40000
Route PPKEO1 UPP V11 PULPS 21N155W/N0477F410 EBBER R577 ELKEY SXC COMIX2
Aircraft C700/M-SBDGHM1RWXY/LB2

Departure

Time 2026-05-05 13:42
Airport Hilo International Airport (PHTO)

Arrival

Time N/A
Airport San Diego International Airport (KSAN)
Time Latitude Longitude Altitude Speed Heading
2026-05-05 13:28 19.71738 -155.06010 33 ft 0 kts 45°
2026-05-05 13:37 19.71739 -155.06009 33 ft 0 kts 52°
2026-05-05 13:37 19.71741 -155.06005 33 ft 2 kts 62°
2026-05-05 13:37 19.71735 -155.05959 33 ft 9 kts 102°
2026-05-05 13:37 19.71751 -155.05896 33 ft 11 kts 38°
2026-05-05 13:38 19.71828 -155.05832 33 ft 17 kts 38°
2026-05-05 13:38 19.71934 -155.05739 33 ft 22 kts 41°
2026-05-05 13:38 19.72016 -155.05620 33 ft 18 kts 88°
2026-05-05 13:38 19.72016 -155.05483 33 ft 20 kts 90°
2026-05-05 13:39 19.72015 -155.05319 31 ft 24 kts 90°
2026-05-05 13:39 19.72016 -155.05131 31 ft 27 kts 90°
2026-05-05 13:39 19.72016 -155.04926 31 ft 29 kts 90°
2026-05-05 13:39 19.72016 -155.04707 32 ft 31 kts 90°
2026-05-05 13:40 19.72016 -155.04476 33 ft 32 kts 90°
2026-05-05 13:40 19.72015 -155.04239 34 ft 33 kts 90°
2026-05-05 13:40 19.72013 -155.03991 35 ft 34 kts 91°
2026-05-05 13:40 19.72018 -155.03733 36 ft 36 kts 89°
2026-05-05 13:41 19.72016 -155.03448 37 ft 42 kts 90°
2026-05-05 13:41 19.72016 -155.03134 37 ft 41 kts 90°
2026-05-05 13:41 19.72041 -155.02961 38 ft 17 kts 39°
2026-05-05 13:41 19.72140 -155.02996 37 ft 18 kts 288°
2026-05-05 13:42 19.72146 -155.03220 37 ft 59 kts 269°
2026-05-05 13:42 19.72139 -155.03943 40 ft 135 kts 269°
2026-05-05 13:42 19.72133 -155.05085 456 ft 170 kts 270°
2026-05-05 13:42 19.72305 -155.06421 1171 ft 195 kts 296°
2026-05-05 13:43 19.73379 -155.07291 2270 ft 206 kts 343°
2026-05-05 13:43 19.74823 -155.07303 3416 ft 212 kts
2026-05-05 13:43 19.76320 -155.07063 4391 ft 224 kts
2026-05-05 13:43 19.77879 -155.06835 5563 ft 227 kts
2026-05-05 13:44 19.79517 -155.06618 6552 ft 250 kts
2026-05-05 13:44 19.81336 -155.06379 7432 ft 276 kts
2026-05-05 13:44 19.83278 -155.06120 8646 ft 282 kts
2026-05-05 13:44 19.85245 -155.05868 9942 ft 288 kts
2026-05-05 13:45 19.87310 -155.05890 10848 ft 311 kts 351°
2026-05-05 13:45 19.89422 -155.06598 11882 ft 323 kts 335°
2026-05-05 13:45 19.91292 -155.07881 13170 ft 328 kts 319°
2026-05-05 13:45 19.92872 -155.09661 14297 ft 335 kts 311°
2026-05-05 13:46 19.94440 -155.11534 15416 ft 341 kts 311°
2026-05-05 13:46 19.96034 -155.13430 16505 ft 346 kts 311°
2026-05-05 13:46 19.97650 -155.15351 17596 ft 350 kts 311°
2026-05-05 13:46 19.99282 -155.17296 18661 ft 353 kts 310°
2026-05-05 13:47 20.00911 -155.19274 19646 ft 358 kts 310°
2026-05-05 13:47 20.02562 -155.21285 20608 ft 362 kts 310°
2026-05-05 13:47 20.04220 -155.23311 21525 ft 366 kts 307°
2026-05-05 13:47 20.05595 -155.25593 22374 ft 369 kts 296°
2026-05-05 13:48 20.06557 -155.28126 23214 ft 371 kts 285°
2026-05-05 13:48 20.07204 -155.30805 24032 ft 375 kts 283°
2026-05-05 13:48 20.07852 -155.33468 24810 ft 379 kts 283°
2026-05-05 13:48 20.08516 -155.36199 25591 ft 382 kts 283°
2026-05-05 13:49 20.09185 -155.38978 26374 ft 385 kts 283°
2026-05-05 13:49 20.09842 -155.41712 27120 ft 388 kts 283°
2026-05-05 13:49 20.10515 -155.44504 27842 ft 391 kts 283°
2026-05-05 13:49 20.11194 -155.47325 28534 ft 394 kts 283°
2026-05-05 13:50 20.11878 -155.50165 29181 ft 398 kts 283°
2026-05-05 13:50 20.12566 -155.53024 29859 ft 400 kts 283°
2026-05-05 13:50 20.13256 -155.55904 30524 ft 403 kts 283°
2026-05-05 13:50 20.13952 -155.58804 31171 ft 406 kts 283°
2026-05-05 13:51 20.14652 -155.61720 31801 ft 408 kts 282°
2026-05-05 13:51 20.15354 -155.64649 32389 ft 409 kts 282°
2026-05-05 13:51 20.16060 -155.67600 32921 ft 411 kts 282°
2026-05-05 13:51 20.16767 -155.70552 33475 ft 413 kts 282°
2026-05-05 13:52 20.17661 -155.73469 33989 ft 417 kts 289°
2026-05-05 13:52 20.18941 -155.76259 34496 ft 423 kts 296°
2026-05-05 13:52 20.20598 -155.78866 35040 ft 428 kts 303°
2026-05-05 13:52 20.22592 -155.81211 35513 ft 436 kts 310°
2026-05-05 13:53 20.24959 -155.83293 35991 ft 444 kts 318°
2026-05-05 13:53 20.27612 -155.85007 36599 ft 449 kts 326°
2026-05-05 13:53 20.30522 -155.86302 37097 ft 458 kts 334°
2026-05-05 13:53 20.33639 -155.87128 37563 ft 466 kts 342°
2026-05-05 13:54 20.36906 -155.87437 37956 ft 477 kts 352°
2026-05-05 13:54 20.40255 -155.87189 38359 ft 487 kts
2026-05-05 13:54 20.43585 -155.86354 38704 ft 498 kts 11°
2026-05-05 13:54 20.46809 -155.84912 39005 ft 508 kts 21°
2026-05-05 13:55 20.49819 -155.82878 39335 ft 517 kts 32°
2026-05-05 13:55 20.52513 -155.80291 39652 ft 524 kts 43°
2026-05-05 13:55 20.54760 -155.77275 40017 ft 527 kts 53°
2026-05-05 13:55 20.56721 -155.73965 40135 ft 532 kts 56°
2026-05-05 13:56 20.60598 -155.67180 40149 ft 536 kts 54°
2026-05-05 13:56 20.64628 -155.60483 40156 ft 535 kts 55°
2026-05-05 13:57 20.68540 -155.53734 40158 ft 533 kts 55°
2026-05-05 13:57 20.72502 -155.47054 40159 ft 530 kts 55°
2026-05-05 13:58 20.76374 -155.40416 40159 ft 529 kts 55°
2026-05-05 13:58 20.80288 -155.33762 40160 ft 528 kts 55°
2026-05-05 13:59 20.86123 -155.23785 40159 ft 528 kts 55°
2026-05-05 14:00 20.91338 -155.14859 40161 ft 530 kts 55°
2026-05-05 14:00 20.95881 -155.07072 40180 ft 530 kts 55°
2026-05-05 14:01 20.99741 -155.00369 40164 ft 528 kts 59°
2026-05-05 14:01 21.02674 -154.93135 40104 ft 529 kts 66°
2026-05-05 14:02 21.05544 -154.85886 40080 ft 529 kts 66°
2026-05-05 14:02 21.08378 -154.78590 40083 ft 532 kts 66°
2026-05-05 14:03 21.11222 -154.71333 40083 ft 530 kts 66°
2026-05-05 14:03 21.14053 -154.64057 40083 ft 528 kts 66°
2026-05-05 14:04 21.16882 -154.56796 40082 ft 528 kts 66°
2026-05-05 14:04 21.19704 -154.49536 40059 ft 527 kts 66°
2026-05-05 14:05 21.22506 -154.42318 40063 ft 527 kts 66°
2026-05-05 14:05 21.25315 -154.35067 40067 ft 526 kts 66°
2026-05-05 14:06 21.28121 -154.27817 40073 ft 526 kts 66°
2026-05-05 14:06 21.30918 -154.20580 40073 ft 525 kts 66°
2026-05-05 14:07 21.33713 -154.13337 40074 ft 527 kts 66°
2026-05-05 14:07 21.36511 -154.06073 40070 ft 526 kts 66°
2026-05-05 14:08 21.39296 -153.98834 40070 ft 524 kts 66°
2026-05-05 14:08 21.42073 -153.91603 40067 ft 524 kts 66°
2026-05-05 14:09 21.44844 -153.84378 40068 ft 523 kts 66°
2026-05-05 14:09 21.47593 -153.77200 40070 ft 522 kts 66°
2026-05-05 14:10 21.50353 -153.69982 40072 ft 523 kts 66°
2026-05-05 14:10 21.52667 -153.63926 40073 ft 524 kts 66°
2026-05-05 14:11 21.55417 -153.56712 40075 ft 525 kts 66°
2026-05-05 14:11 21.58189 -153.49430 40077 ft 526 kts 66°
2026-05-05 14:12 21.60962 -153.42138 40078 ft 527 kts 66°
2026-05-05 14:12 21.63731 -153.34842 40080 ft 527 kts 66°
2026-05-05 14:13 21.66499 -153.27542 40081 ft 526 kts 66°
2026-05-05 14:13 21.69259 -153.20247 40080 ft 527 kts 66°
2026-05-05 14:14 21.72182 -153.13024 40077 ft 526 kts 59°
2026-05-05 14:14 21.75707 -153.06131 40080 ft 526 kts 59°
2026-05-05 14:15 21.79179 -152.99198 40082 ft 525 kts 59°
2026-05-05 14:15 21.82650 -152.92343 40081 ft 524 kts 59°
2026-05-05 14:16 21.86107 -152.85457 40079 ft 522 kts 59°
2026-05-05 14:16 21.89574 -152.78568 40078 ft 523 kts 59°
2026-05-05 14:17 21.93045 -152.71653 40078 ft 525 kts 59°
2026-05-05 14:17 21.96520 -152.64724 40081 ft 526 kts 59°
2026-05-05 14:18 21.99991 -152.57789 40083 ft 525 kts 59°
2026-05-05 14:18 22.03423 -152.50925 40083 ft 522 kts 59°
2026-05-05 14:19 22.06860 -152.44043 40080 ft 521 kts 59°
2026-05-05 14:19 22.10302 -152.37144 40080 ft 522 kts 59°
2026-05-05 14:20 22.13744 -152.30233 40080 ft 523 kts 59°
2026-05-05 14:20 22.17191 -152.23305 40082 ft 525 kts 59°
2026-05-05 14:21 22.20640 -152.16359 40084 ft 525 kts 59°
2026-05-05 14:21 22.24087 -152.09408 40082 ft 523 kts 59°
2026-05-05 14:22 22.27514 -152.02492 40080 ft 521 kts 59°
2026-05-05 14:22 22.30932 -151.95585 40078 ft 522 kts 59°
2026-05-05 14:23 22.34333 -151.88702 40078 ft 524 kts 59°
2026-05-05 14:23 22.37748 -151.81741 40081 ft 525 kts 59°
2026-05-05 14:24 22.41159 -151.74775 40083 ft 523 kts 59°
2026-05-05 14:24 22.44563 -151.67815 40082 ft 522 kts 59°
2026-05-05 14:25 22.47943 -151.60895 40080 ft 520 kts 59°
2026-05-05 14:25 22.51326 -151.53964 40078 ft 521 kts 59°
2026-05-05 14:26 22.54712 -151.47014 40079 ft 523 kts 59°
2026-05-05 14:26 22.58105 -151.40039 40082 ft 524 kts 59°
2026-05-05 14:27 22.61464 -151.33120 40083 ft 521 kts 59°
2026-05-05 14:27 22.64831 -151.26183 40081 ft 520 kts 59°
2026-05-05 14:28 22.68198 -151.19234 40080 ft 521 kts 59°
2026-05-05 14:28 22.71571 -151.12263 40081 ft 522 kts 59°
2026-05-05 14:29 22.74944 -151.05282 40083 ft 523 kts 59°
2026-05-05 14:29 22.78313 -150.98295 40085 ft 522 kts 59°
2026-05-05 14:30 22.81670 -150.91327 40084 ft 520 kts 59°
2026-05-05 14:30 22.85013 -150.84380 40082 ft 520 kts 59°
2026-05-05 14:31 22.88361 -150.77412 40081 ft 522 kts 59°
2026-05-05 14:31 22.91716 -150.70422 40084 ft 523 kts 59°
2026-05-05 14:32 22.95047 -150.63469 40086 ft 523 kts 59°
2026-05-05 14:32 22.98393 -150.56472 40087 ft 521 kts 59°
2026-05-05 14:33 23.01726 -150.49496 40085 ft 520 kts 59°
2026-05-05 14:33 23.05047 -150.42535 40083 ft 519 kts 59°
2026-05-05 14:34 23.08376 -150.35549 40083 ft 521 kts 60°
2026-05-05 14:34 23.11708 -150.28545 40085 ft 523 kts 60°
2026-05-05 14:35 23.15043 -150.21525 40087 ft 522 kts 60°
2026-05-05 14:35 23.18344 -150.14566 40087 ft 521 kts 60°
2026-05-05 14:36 23.21663 -150.07560 40086 ft 522 kts 60°
2026-05-05 14:36 23.24986 -150.00533 40087 ft 523 kts 60°
2026-05-05 14:37 23.28314 -149.93488 40089 ft 524 kts 60°
2026-05-05 14:37 23.31641 -149.86434 40090 ft 522 kts 60°
2026-05-05 14:38 23.34951 -149.79408 40088 ft 521 kts 60°
2026-05-05 14:38 23.38247 -149.72398 40086 ft 520 kts 60°
2026-05-05 14:39 23.41548 -149.65370 40084 ft 522 kts 60°
2026-05-05 14:39 23.44833 -149.58362 40086 ft 523 kts 60°
2026-05-05 14:40 23.48151 -149.51278 40088 ft 524 kts 60°
2026-05-05 14:40 23.51459 -149.44204 40089 ft 524 kts 60°
2026-05-05 14:41 23.54757 -149.37139 40090 ft 522 kts 60°
2026-05-05 14:41 23.58044 -149.30091 40088 ft 521 kts 60°
2026-05-05 14:42 23.61319 -149.23054 40086 ft 520 kts 60°
2026-05-05 14:42 23.64597 -149.16002 40086 ft 522 kts 60°
2026-05-05 14:43 23.67883 -149.08920 40088 ft 524 kts 60°
2026-05-05 14:43 23.71174 -149.01821 40091 ft 524 kts 60°
2026-05-05 14:44 23.74453 -148.94736 40091 ft 522 kts 60°
2026-05-05 14:44 23.77698 -148.87713 40090 ft 521 kts 60°
2026-05-05 14:45 23.80953 -148.80657 40088 ft 520 kts 60°
2026-05-05 14:45 23.84211 -148.73585 40088 ft 521 kts 60°
2026-05-05 14:46 23.87468 -148.66504 40089 ft 523 kts 60°
2026-05-05 14:46 23.90739 -148.59385 40092 ft 524 kts 60°
2026-05-05 14:47 23.94000 -148.52276 40094 ft 523 kts 60°
2026-05-05 14:47 23.97252 -148.45173 40093 ft 521 kts 60°
2026-05-05 14:48 24.00491 -148.38089 40091 ft 521 kts 60°
2026-05-05 14:48 24.03730 -148.30993 40091 ft 521 kts 60°
2026-05-05 14:49 24.06965 -148.23900 40090 ft 522 kts 60°
2026-05-05 14:49 24.10209 -148.16772 40091 ft 523 kts 60°
2026-05-05 14:50 24.13438 -148.09668 40094 ft 524 kts 60°
2026-05-05 14:50 24.16672 -148.02543 40094 ft 522 kts 60°
2026-05-05 14:51 24.19899 -147.95419 40093 ft 521 kts 60°
2026-05-05 14:51 24.23112 -147.88316 40091 ft 521 kts 60°
2026-05-05 14:52 24.26330 -147.81193 40091 ft 522 kts 60°
2026-05-05 14:52 24.29549 -147.74055 40093 ft 521 kts 60°
2026-05-05 14:53 24.32757 -147.66934 40093 ft 520 kts 60°
2026-05-05 14:53 24.35956 -147.59819 40092 ft 520 kts 60°
2026-05-05 14:54 24.39144 -147.52717 40092 ft 518 kts 60°
2026-05-05 14:54 24.42329 -147.45613 40091 ft 519 kts 60°
2026-05-05 14:55 24.45517 -147.38488 40093 ft 520 kts 60°
2026-05-05 14:55 24.48680 -147.31409 40094 ft 519 kts 60°
2026-05-05 14:56 24.51852 -147.24303 40094 ft 518 kts 60°
2026-05-05 14:56 24.55013 -147.17206 40092 ft 517 kts 60°
2026-05-05 14:57 24.57659 -147.11256 40093 ft 517 kts 60°
2026-05-05 14:57 24.60796 -147.04194 40094 ft 518 kts 60°
2026-05-05 14:58 24.63954 -146.97075 40095 ft 518 kts 60°
2026-05-05 14:58 24.67111 -146.89946 40096 ft 519 kts 60°
2026-05-05 14:59 24.70271 -146.82800 40097 ft 519 kts 61°
2026-05-05 14:59 24.73422 -146.75661 40098 ft 519 kts 61°
2026-05-05 15:00 24.76043 -146.69712 40099 ft 520 kts 61°
2026-05-05 15:00 24.79726 -146.61343 40100 ft 520 kts 61°
2026-05-05 15:01 24.82880 -146.54165 40101 ft 520 kts 61°
2026-05-05 15:01 24.86029 -146.46988 40102 ft 521 kts 61°
2026-05-05 15:02 24.89158 -146.39843 40103 ft 521 kts 61°
2026-05-05 15:02 24.92295 -146.32666 40101 ft 518 kts 61°
2026-05-05 15:03 24.95412 -146.25527 40098 ft 516 kts 61°
2026-05-05 15:03 24.98521 -146.18394 40096 ft 516 kts 61°
2026-05-05 15:04 25.01621 -146.11268 40096 ft 517 kts 61°
2026-05-05 15:04 25.04730 -146.04114 40096 ft 517 kts 61°
2026-05-05 15:05 25.09360 -145.93434 40096 ft 515 kts 61°
2026-05-05 15:06 25.12443 -145.86312 40095 ft 514 kts 61°
2026-05-05 15:06 25.15519 -145.79191 40094 ft 515 kts 61°
2026-05-05 15:07 25.18607 -145.72031 40095 ft 517 kts 61°
2026-05-05 15:07 25.21687 -145.64874 40098 ft 515 kts 61°
2026-05-05 15:08 25.24763 -145.57721 40097 ft 513 kts 61°
2026-05-05 15:08 25.27819 -145.50604 40096 ft 513 kts 61°
2026-05-05 15:09 25.30856 -145.43508 40096 ft 514 kts 61°
2026-05-05 15:09 25.33916 -145.36351 40097 ft 515 kts 61°
2026-05-05 15:10 25.36974 -145.29182 40099 ft 516 kts 61°
2026-05-05 15:10 25.40035 -145.21996 40101 ft 517 kts 62°
2026-05-05 15:11 25.43095 -145.14802 40103 ft 516 kts 62°
2026-05-05 15:11 25.46144 -145.07622 40102 ft 514 kts 62°
2026-05-05 15:12 25.49165 -145.00497 40102 ft 509 kts 62°
2026-05-05 15:12 25.52172 -144.93394 40099 ft 509 kts 62°
2026-05-05 15:13 25.55156 -144.86330 40099 ft 510 kts 62°
2026-05-05 15:13 25.58181 -144.79158 40100 ft 511 kts 62°
2026-05-05 15:14 25.61170 -144.72060 40088 ft 512 kts 62°
2026-05-05 15:14 25.64174 -144.64917 40047 ft 510 kts 62°
2026-05-05 15:15 25.67157 -144.57811 40041 ft 508 kts 62°
2026-05-05 15:15 25.70135 -144.50707 40041 ft 507 kts 62°
2026-05-05 15:16 25.73097 -144.43624 40043 ft 506 kts 62°
2026-05-05 15:16 25.76065 -144.36519 40038 ft 507 kts 62°
2026-05-05 15:17 25.79010 -144.29454 40044 ft 508 kts 62°
2026-05-05 15:17 25.81974 -144.22335 40044 ft 508 kts 62°
2026-05-05 15:18 25.84932 -144.15219 40047 ft 506 kts 62°
2026-05-05 15:18 25.87872 -144.08134 40040 ft 504 kts 62°
2026-05-05 15:19 25.90807 -144.01048 40036 ft 506 kts 62°
2026-05-05 15:19 25.93749 -143.93930 40041 ft 507 kts 62°
2026-05-05 15:20 25.96693 -143.86800 40045 ft 508 kts 62°
2026-05-05 15:20 25.99636 -143.79660 40049 ft 507 kts 62°
2026-05-05 15:21 26.02544 -143.72593 40045 ft 505 kts 62°
2026-05-05 15:21 26.05461 -143.65493 40046 ft 505 kts 62°
2026-05-05 15:22 26.08380 -143.58371 40046 ft 507 kts 62°
2026-05-05 15:22 26.11298 -143.51240 40048 ft 506 kts 62°
2026-05-05 15:23 26.14205 -143.44129 40039 ft 504 kts 62°
2026-05-05 15:23 26.17103 -143.37028 40046 ft 504 kts 62°
2026-05-05 15:24 26.20003 -143.29907 40047 ft 505 kts 62°
2026-05-05 15:24 26.22898 -143.22787 40048 ft 504 kts 62°
2026-05-05 15:25 26.25788 -143.15664 40047 ft 504 kts 63°
2026-05-05 15:25 26.28656 -143.08585 40044 ft 503 kts 63°
2026-05-05 15:26 26.31531 -143.01478 40043 ft 503 kts 63°
2026-05-05 15:26 26.34407 -142.94358 40041 ft 504 kts 63°
2026-05-05 15:27 26.37288 -142.87212 40041 ft 506 kts 63°
2026-05-05 15:27 26.40172 -142.80044 40050 ft 506 kts 63°
2026-05-05 15:28 26.43040 -142.72901 40042 ft 503 kts 63°
2026-05-05 15:28 26.45900 -142.65771 40046 ft 504 kts 63°
2026-05-05 15:29 26.48746 -142.58661 40042 ft 505 kts 63°
2026-05-05 15:29 26.51613 -142.51489 40049 ft 506 kts 63°
2026-05-05 15:30 26.54484 -142.44293 40042 ft 506 kts 63°
2026-05-05 15:30 26.57344 -142.37108 40047 ft 505 kts 63°
2026-05-05 15:31 26.60198 -142.29929 40047 ft 506 kts 63°
2026-05-05 15:31 26.63051 -142.22739 40050 ft 505 kts 63°
2026-05-05 15:32 26.65893 -142.15564 40046 ft 504 kts 63°
2026-05-05 15:32 26.68725 -142.08405 40047 ft 504 kts 63°
2026-05-05 15:33 26.71559 -142.01226 40048 ft 505 kts 63°
2026-05-05 15:33 26.74400 -141.94013 40044 ft 506 kts 63°
2026-05-05 15:34 26.77229 -141.86820 40045 ft 504 kts 63°
2026-05-05 15:34 26.80031 -141.79684 40046 ft 504 kts 63°
2026-05-05 15:35 26.82844 -141.72505 40042 ft 503 kts 63°
2026-05-05 15:35 26.85648 -141.65340 40043 ft 502 kts 63°
2026-05-05 15:36 26.88445 -141.58178 40046 ft 501 kts 63°
2026-05-05 15:36 26.91238 -141.51014 40046 ft 502 kts 63°
2026-05-05 15:37 26.94030 -141.43839 40043 ft 502 kts 63°
2026-05-05 15:37 26.96825 -141.36642 40047 ft 503 kts 64°
2026-05-05 15:38 26.99615 -141.29447 40044 ft 502 kts 64°
2026-05-05 15:38 27.02390 -141.22277 40047 ft 501 kts 64°
2026-05-05 15:39 27.05139 -141.15160 40047 ft 500 kts 64°
2026-05-05 15:39 27.07902 -141.07998 40042 ft 500 kts 64°
2026-05-05 15:40 27.10656 -141.00845 40046 ft 499 kts 64°
2026-05-05 15:40 27.13406 -140.93689 40045 ft 499 kts 64°
2026-05-05 15:41 27.16145 -140.86547 40046 ft 497 kts 64°
2026-05-05 15:41 27.18415 -140.80617 40042 ft 497 kts 64°
2026-05-05 15:42 27.21588 -140.72316 40042 ft 497 kts 64°
2026-05-05 15:42 27.24308 -140.65187 40042 ft 496 kts 64°
2026-05-05 15:43 27.26565 -140.59261 40042 ft 495 kts 64°
2026-05-05 15:43 27.29272 -140.52142 40045 ft 495 kts 64°
2026-05-05 15:44 27.31972 -140.45024 40045 ft 495 kts 64°
2026-05-05 15:44 27.34666 -140.37916 40045 ft 493 kts 64°
2026-05-05 15:45 27.37355 -140.30804 40045 ft 494 kts 64°
2026-05-05 15:45 27.40040 -140.23691 40044 ft 493 kts 64°
2026-05-05 15:46 27.42717 -140.16590 40043 ft 491 kts 64°
2026-05-05 15:46 27.45378 -140.09510 40040 ft 491 kts 64°
2026-05-05 15:47 27.48039 -140.02420 40045 ft 491 kts 64°
2026-05-05 15:47 27.50693 -139.95337 40044 ft 490 kts 64°
2026-05-05 15:48 27.53321 -139.88311 40047 ft 489 kts 64°
2026-05-05 15:48 27.55961 -139.81243 40047 ft 490 kts 64°
2026-05-05 15:49 27.58604 -139.74150 40049 ft 491 kts 64°
2026-05-05 15:49 27.61251 -139.67035 40050 ft 492 kts 65°
2026-05-05 15:50 27.63894 -139.59915 40046 ft 492 kts 64°
2026-05-05 15:50 27.66539 -139.52777 40048 ft 493 kts 64°
2026-05-05 15:51 27.69178 -139.45641 40053 ft 494 kts 65°
2026-05-05 15:51 27.71800 -139.38540 40049 ft 494 kts 65°
2026-05-05 15:52 27.74440 -139.31378 40047 ft 494 kts 65°
2026-05-05 15:52 27.77071 -139.24226 40053 ft 493 kts 64°
2026-05-05 15:53 27.79698 -139.17068 40048 ft 492 kts 64°
2026-05-05 15:53 27.82311 -139.09936 40045 ft 491 kts 65°
2026-05-05 15:54 27.84926 -139.02787 40051 ft 494 kts 65°
2026-05-05 15:54 27.87546 -138.95611 40053 ft 494 kts 65°
2026-05-05 15:55 27.90158 -138.88442 40050 ft 493 kts 65°
2026-05-05 15:55 27.92762 -138.81278 40053 ft 491 kts 65°
2026-05-05 15:56 27.95340 -138.74167 40052 ft 493 kts 65°
2026-05-05 15:56 27.97938 -138.66986 40054 ft 493 kts 65°
2026-05-05 15:57 28.00534 -138.59801 40046 ft 492 kts 65°
2026-05-05 15:57 28.03114 -138.52644 40052 ft 490 kts 65°
2026-05-05 15:58 28.05686 -138.45500 40050 ft 489 kts 65°
2026-05-05 15:58 28.08235 -138.38401 40054 ft 489 kts 65°
2026-05-05 15:59 28.10793 -138.31266 40047 ft 489 kts 65°
2026-05-05 15:59 28.13355 -138.24103 40045 ft 489 kts 65°
2026-05-05 16:00 28.15911 -138.16944 40054 ft 489 kts 65°
2026-05-05 16:00 28.18459 -138.09797 40054 ft 490 kts 65°
2026-05-05 16:01 28.20993 -138.02675 40048 ft 490 kts 65°
2026-05-05 16:01 28.23538 -137.95506 40055 ft 490 kts 65°
2026-05-05 16:02 28.26082 -137.88323 40054 ft 490 kts 65°
2026-05-05 16:02 28.28620 -137.81146 40051 ft 491 kts 65°
2026-05-05 16:03 28.31163 -137.73943 40055 ft 491 kts 65°
2026-05-05 16:03 28.33702 -137.66737 40053 ft 492 kts 65°
2026-05-05 16:04 28.36240 -137.59517 40060 ft 493 kts 65°
2026-05-05 16:04 28.38767 -137.52315 40061 ft 493 kts 65°
2026-05-05 16:05 28.41296 -137.45090 40057 ft 491 kts 65°
2026-05-05 16:05 28.43824 -137.37859 40047 ft 492 kts 65°
2026-05-05 16:06 28.46329 -137.30673 40050 ft 492 kts 65°
2026-05-05 16:06 28.48853 -137.23425 40056 ft 493 kts 65°
2026-05-05 16:07 28.51373 -137.16173 40058 ft 493 kts 65°
2026-05-05 16:07 28.53891 -137.08911 40058 ft 494 kts 65°
2026-05-05 16:08 28.56407 -137.01636 40056 ft 492 kts 65°
2026-05-05 16:08 28.58905 -136.94402 40052 ft 491 kts 65°
2026-05-05 16:09 28.61404 -136.87149 40056 ft 493 kts 65°
2026-05-05 16:09 28.63911 -136.79860 40050 ft 494 kts 65°
2026-05-05 16:10 28.66410 -136.72577 40052 ft 493 kts 65°
2026-05-05 16:10 28.68882 -136.65362 40052 ft 491 kts 65°
2026-05-05 16:11 28.71364 -136.58104 40053 ft 493 kts 65°
2026-05-05 16:12 28.76337 -136.43507 40056 ft 493 kts 65°
2026-05-05 16:13 28.82514 -136.25297 40057 ft 493 kts 65°
2026-05-05 16:13 28.84983 -136.17992 40055 ft 493 kts 65°
2026-05-05 16:14 28.89889 -136.03432 40058 ft 492 kts 65°
2026-05-05 16:15 28.94790 -135.88830 40052 ft 494 kts 65°
2026-05-05 16:16 28.99692 -135.74157 40044 ft 495 kts 65°
2026-05-05 16:17 29.03360 -135.63140 40059 ft 494 kts 65°
2026-05-05 16:18 29.07002 -135.52161 40053 ft 494 kts 65°
2026-05-05 16:19 29.10651 -135.41133 40049 ft 496 kts 65°
2026-05-05 16:19 29.14311 -135.30036 40062 ft 497 kts 65°
2026-05-05 16:20 29.19165 -135.15257 40058 ft 495 kts 65°
2026-05-05 16:22 29.25190 -134.96831 40055 ft 497 kts 65°
2026-05-05 16:23 29.30020 -134.81987 40061 ft 497 kts 65°
2026-05-05 16:23 29.33630 -134.70847 40058 ft 497 kts 65°
2026-05-05 16:24 29.36033 -134.63414 40058 ft 498 kts 65°
2026-05-05 16:25 29.39642 -134.52218 40059 ft 499 kts 65°
2026-05-05 16:25 29.43249 -134.40995 40067 ft 500 kts 65°
2026-05-05 16:26 29.48026 -134.26064 40061 ft 496 kts 65°
2026-05-05 16:27 29.50385 -134.18671 40064 ft 497 kts 65°
2026-05-05 16:27 29.52767 -134.11191 40061 ft 499 kts 65°
2026-05-05 16:28 29.55151 -134.03682 40062 ft 500 kts 65°
2026-05-05 16:28 29.57526 -133.96187 40056 ft 499 kts 65°
2026-05-05 16:29 29.59897 -133.88688 40065 ft 500 kts 65°
2026-05-05 16:29 29.62268 -133.81169 40063 ft 501 kts 65°
2026-05-05 16:30 29.64640 -133.73633 40063 ft 501 kts 65°
2026-05-05 16:30 29.66607 -133.67370 40070 ft 500 kts 65°
2026-05-05 16:31 29.69348 -133.58627 40063 ft 500 kts 65°
2026-05-05 16:31 29.71317 -133.52325 40064 ft 501 kts 65°
2026-05-05 16:32 29.73674 -133.44770 40062 ft 502 kts 65°
2026-05-05 16:32 29.76019 -133.37238 40069 ft 503 kts 66°
2026-05-05 16:33 29.78376 -133.29652 40065 ft 504 kts 66°
2026-05-05 16:33 29.80734 -133.22039 40064 ft 504 kts 66°
2026-05-05 16:34 29.83085 -133.14433 40070 ft 504 kts 66°
2026-05-05 16:34 29.85435 -133.06815 40064 ft 505 kts 66°
2026-05-05 16:35 29.87786 -132.99174 40071 ft 506 kts 66°
2026-05-05 16:35 29.90121 -132.91567 40062 ft 507 kts 66°
2026-05-05 16:36 29.92473 -132.83889 40065 ft 507 kts 66°
2026-05-05 16:36 29.94817 -132.76216 40071 ft 508 kts 66°
2026-05-05 16:37 29.97162 -132.68524 40066 ft 509 kts 66°
2026-05-05 16:37 29.99508 -132.60807 40066 ft 510 kts 66°
2026-05-05 16:38 30.01843 -132.53106 40059 ft 507 kts 66°
2026-05-05 16:38 30.04173 -132.45415 40071 ft 508 kts 66°
2026-05-05 16:39 30.06483 -132.37760 40066 ft 508 kts 66°
2026-05-05 16:39 30.08807 -132.30047 40067 ft 509 kts 66°
2026-05-05 16:40 30.11130 -132.22312 40068 ft 511 kts 66°
2026-05-05 16:40 30.13453 -132.14559 40073 ft 511 kts 66°
2026-05-05 16:41 30.15778 -132.06786 40068 ft 512 kts 66°
2026-05-05 16:41 30.18098 -131.99008 40068 ft 511 kts 66°
2026-05-05 16:42 30.20406 -131.91255 40063 ft 509 kts 66°
2026-05-05 16:42 30.22702 -131.83516 40059 ft 508 kts 66°
2026-05-05 16:43 30.24980 -131.75822 40071 ft 509 kts 67°
2026-05-05 16:43 30.27271 -131.68065 40062 ft 509 kts 67°
2026-05-05 16:44 30.29553 -131.60319 40072 ft 509 kts 67°
2026-05-05 16:44 30.31826 -131.52580 40072 ft 507 kts 67°
2026-05-05 16:45 30.34091 -131.44852 40071 ft 507 kts 67°
2026-05-05 16:45 30.36352 -131.37115 40072 ft 507 kts 67°
2026-05-05 16:46 30.38606 -131.29387 40071 ft 506 kts 67°
2026-05-05 16:46 30.40857 -131.21649 40062 ft 507 kts 67°
2026-05-05 16:47 30.43109 -131.13887 40065 ft 509 kts 67°
2026-05-05 16:47 30.45347 -131.06147 40070 ft 510 kts 67°
2026-05-05 16:48 30.47594 -130.98363 40069 ft 509 kts 67°
2026-05-05 16:48 30.49835 -130.90583 40060 ft 508 kts 67°
2026-05-05 16:49 30.52067 -130.82813 40067 ft 507 kts 67°
2026-05-05 16:49 30.54294 -130.75044 40073 ft 508 kts 67°
2026-05-05 16:50 30.56510 -130.67285 40062 ft 510 kts 67°
2026-05-05 16:50 30.58739 -130.59461 40075 ft 510 kts 67°
2026-05-05 16:51 30.60961 -130.51648 40071 ft 509 kts 68°
2026-05-05 16:51 30.63173 -130.43851 40073 ft 508 kts 68°
2026-05-05 16:52 30.65380 -130.36048 40072 ft 508 kts 68°
2026-05-05 16:52 30.67580 -130.28250 40060 ft 509 kts 68°
2026-05-05 16:53 30.69789 -130.20398 40072 ft 511 kts 68°
2026-05-05 16:53 30.71989 -130.12557 40076 ft 510 kts 68°
2026-05-05 16:54 30.74172 -130.04763 40066 ft 509 kts 68°
2026-05-05 16:54 30.76360 -129.96929 40074 ft 509 kts 68°
2026-05-05 16:55 30.78549 -129.89071 40074 ft 512 kts 68°
2026-05-05 16:55 30.80739 -129.81181 40069 ft 512 kts 68°
2026-05-05 16:56 30.82923 -129.73296 40076 ft 512 kts 68°
2026-05-05 16:56 30.85102 -129.65409 40064 ft 512 kts 68°
2026-05-05 16:57 30.87262 -129.57573 40076 ft 510 kts 68°
2026-05-05 16:57 30.89425 -129.49708 40065 ft 510 kts 68°
2026-05-05 16:58 30.91588 -129.41816 40070 ft 512 kts 68°
2026-05-05 16:58 30.93753 -129.33896 40074 ft 513 kts 68°
2026-05-05 16:59 30.95912 -129.25974 40063 ft 513 kts 68°
2026-05-05 16:59 30.98055 -129.18093 40076 ft 513 kts 69°
2026-05-05 17:00 31.00209 -129.10150 40075 ft 514 kts 69°
2026-05-05 17:00 31.02365 -129.02181 40066 ft 515 kts 69°
2026-05-05 17:01 31.04509 -128.94229 40066 ft 512 kts 69°
2026-05-05 17:01 31.06643 -128.86303 40064 ft 512 kts 69°
2026-05-05 17:02 31.08772 -128.78362 40064 ft 512 kts 69°
2026-05-05 17:02 31.10895 -128.70422 40073 ft 513 kts 69°
2026-05-05 17:03 31.13003 -128.62520 40061 ft 512 kts 69°
2026-05-05 17:03 31.15116 -128.54585 40073 ft 512 kts 69°
2026-05-05 17:04 31.17227 -128.46628 40073 ft 513 kts 69°
2026-05-05 17:04 31.19329 -128.38682 40066 ft 511 kts 69°
2026-05-05 17:05 31.21421 -128.30753 40073 ft 510 kts 69°
2026-05-05 17:05 31.23507 -128.22826 40070 ft 510 kts 69°
2026-05-05 17:06 31.25573 -128.14947 40065 ft 509 kts 69°
2026-05-05 17:06 31.27643 -128.07040 40072 ft 510 kts 70°
2026-05-05 17:07 31.29711 -127.99114 40072 ft 508 kts 70°
2026-05-05 17:07 31.31779 -127.91173 40065 ft 513 kts 70°
2026-05-05 17:08 31.33854 -127.83173 40068 ft 514 kts 70°
2026-05-05 17:08 31.35924 -127.75175 40062 ft 514 kts 70°
2026-05-05 17:09 31.37988 -127.67174 40070 ft 513 kts 70°
2026-05-05 17:09 31.40046 -127.59175 40065 ft 513 kts 70°
2026-05-05 17:10 31.42084 -127.51231 40076 ft 513 kts 70°
2026-05-05 17:10 31.44129 -127.43236 40070 ft 512 kts 70°
2026-05-05 17:11 31.46171 -127.35233 40070 ft 512 kts 70°
2026-05-05 17:11 31.48213 -127.27208 40069 ft 515 kts 70°
2026-05-05 17:12 31.50254 -127.19157 40074 ft 516 kts 70°
2026-05-05 17:12 31.52293 -127.11096 40069 ft 517 kts 70°
2026-05-05 17:13 31.54332 -127.03006 40068 ft 518 kts 70°
2026-05-05 17:13 31.56370 -126.94899 40067 ft 517 kts 70°
2026-05-05 17:14 31.58399 -126.86809 40065 ft 517 kts 70°
2026-05-05 17:14 31.60424 -126.78705 40072 ft 518 kts 70°
2026-05-05 17:15 31.62452 -126.70571 40076 ft 520 kts 71°
2026-05-05 17:15 31.64470 -126.62444 40070 ft 518 kts 71°
2026-05-05 17:16 31.66469 -126.54374 40067 ft 518 kts 71°
2026-05-05 17:16 31.68478 -126.46238 40068 ft 519 kts 71°
2026-05-05 17:17 31.70485 -126.38089 40075 ft 520 kts 71°
2026-05-05 17:17 31.72483 -126.29951 40075 ft 517 kts 71°
2026-05-05 17:18 31.74136 -126.23195 40074 ft 517 kts 71°
2026-05-05 17:18 31.76121 -126.15066 40060 ft 518 kts 71°
2026-05-05 17:19 31.78103 -126.06922 40071 ft 518 kts 71°
2026-05-05 17:19 31.80075 -125.98799 40062 ft 516 kts 71°
2026-05-05 17:20 31.82040 -125.90678 40061 ft 516 kts 71°
2026-05-05 17:20 31.84001 -125.82544 40074 ft 518 kts 71°
2026-05-05 17:21 31.85964 -125.74375 40075 ft 520 kts 71°
2026-05-05 17:22 31.88904 -125.62105 40075 ft 519 kts 71°
2026-05-05 17:22 31.90843 -125.53974 40066 ft 520 kts 71°
2026-05-05 17:23 31.92791 -125.45785 40067 ft 520 kts 71°
2026-05-05 17:23 31.94740 -125.37568 40055 ft 521 kts 71°
2026-05-05 17:24 31.96688 -125.29327 40067 ft 523 kts 72°
2026-05-05 17:24 31.98639 -125.21043 40061 ft 524 kts 72°
2026-05-05 17:25 32.00583 -125.12766 40056 ft 523 kts 72°
2026-05-05 17:25 32.02486 -125.04629 40059 ft 511 kts 72°
2026-05-05 17:26 32.04380 -124.96529 40063 ft 512 kts 72°
2026-05-05 17:26 32.06264 -124.88422 40062 ft 513 kts 72°
2026-05-05 17:27 32.08151 -124.80288 40058 ft 514 kts 72°
2026-05-05 17:27 32.10023 -124.72189 40055 ft 515 kts 72°
2026-05-05 17:28 32.11902 -124.64035 40053 ft 515 kts 72°
2026-05-05 17:28 32.13779 -124.55864 40062 ft 517 kts 72°